DELTA 1 DEB, 10314

Orbit data source: Space-Track

DELTA 1 DEB, 10314 is space debris in LEO originally from a launch on Thu, 14 Jul 1977 UTC launched from the Air Force Eastern Test Range (AFETR). Debris objects in space refer to the collection of defunct objects orbiting the Earth. Examples of debris include non-operational satellites, rocket bodies, and fragments generated from explosions, collisions, or faulty payload assembly.

Loading next visibility...
Identifier
10314, 1977-065DL
Orbit
LEO
Country
Flag of USUS
Related business
Manufacturer
Unknown
Mission
Spacecraft
Bus & Motor
Unknown
Mass
Unknown
Launch date (UTC)
1977-07-14 (48 years ago)
Launch vehicle
Unknown
Launch site
Air Force Eastern Test Range (AFETR)
Object type
Payload
Rocket body
Debris
Shape & HBR
Unknown shape, 0.1 m
Radar Cross Section
Small (<0.1 m²)

Expand to show TLE details & history
Last TLE update: 13 hours ago

TLE from 13 hours ago
0 DELTA 1 DEB
1 10314U 77065DL  25351.57668973  .00001640  00000-0  52944-3 0  9999
2 10314  28.7807 162.3896 0636953 286.1845 120.2604 13.58490287334613
Epoch: 2025-12-17T13:50Z
TLE epoch observation values (Epoch: 2025-12-17T13:50:25.992Z)
Latitude
22.54563°
Longitude
-82.89909°
Altitude
1,298.876 km
Speed
7.084 km/s
True Right ascension
14h 04m 36s
True Declination
22° 25' 58"
Sunlit
Object was in daylight at epoch
Visualization orbit readout
Latitude
Unknown
Longitude
Unknown
Altitude
Unknown
Speed
Unknown
Apparent Right ascension
Unknown
Apparent Declination
Unknown
Sunlit
N/A
Visualization observer readout
Local Sidereal Time
01:32:14
Azimuth
Unknown
Elevation
Unknown
Doppler factor
Unknown
Orbital elements
Apogee altitude
1,517.91 km
Perigee altitude
572.261 km
Semi-major axis
7,423.223 km
Eccentricity
0.0637
Inclination
28.7807°
RAAN
162.3896°
Arg. of periapsis
286.1845°
True anomaly
126.31007°
Mean anomaly
120.2604°
Eccentric anomaly
123.3103°
Mean motion
3.39355 °/min
Orbital period
106.08 mins
BSTAR
0.00052944
Loading maneuver chart data...
Computing Atmospheric mass density...

Documentation

Showing up to 5 results
|